[[{"header":{"parameterUnit":"m.s-1","parameterCategory":1,"la1":30.2991,"la2":30.254,"lo1":-89.0895,"lo2":-89.0444,"dy":0.0017,"dx":0.0017,"nx":28,"ny":28,"refTime":"2024-02-08T03:00:00:Z","depth":0,"parameterNumber":2,"parameterNumberName":"U-component_of_WINDS"},"data":[0,0,0,0,0,0,0,0,0,0,0,0,0,0,0,0,0,0,0,0,0,0,0,0,0,0,0,0,0,0,0,0,0,0,0,0,0,0,0,0,0,0,0,0,0,0,0,0,0,0,0,0,0,0,0,0,0,0,-2.7365,-2.7366,0,-2.7492,-2.7494,-2.7495,-2.7502,-2.75,-2.7499,-2.7497,-2.7633,-2.7638,-2.7643,0,0,0,0,0,0,0,0,0,0,0,0,0,-2.713,-2.7135,-2.7364,-2.7366,-2.7368,-2.7492,-2.7494,-2.7496,-2.7502,-2.75,-2.7498,-2.7497,-2.7632,-2.7637,-2.7644,0,0,0,0,0,0,0,0,0,0,0,0,0,-2.7243,-2.7136,-2.7364,-2.7386,-2.7389,-2.7492,-2.7494,-2.7496,-2.7502,-2.75,-2.7498,-2.7496,-2.763,-2.7637,-2.7644,-2.7736,0,0,-2.7667,-2.7671,0,0,0,0,0,0,0,0,-2.7236,-2.7251,-2.7381,-2.7384,-2.7388,-2.7479,-2.7461,-2.7577,-2.7503,-2.7459,-2.7497,-2.7495,-2.7584,-2.7595,-2.7624,-2.7742,-2.7748,-2.7668,-2.7673,-2.7676,-2.7678,0,0,0,0,0,0,0,-2.7228,-2.7246,-2.7415,-2.7383,-2.7387,-2.739,-2.7404,-2.7483,-2.7533,-2.7463,-2.7464,-2.7478,-2.7586,-2.7617,-2.7627,-2.775,-2.7668,-2.7675,-2.7679,-2.7682,-2.7949,-2.7952,0,0,0,0,0,0,-2.7216,-2.7239,-2.7411,-2.7419,-2.7305,-2.7396,-2.7411,-2.7452,-2.7532,-2.7542,-2.748,-2.7478,-2.7605,-2.7619,-2.7632,-2.7744,-2.7676,-2.7683,-2.7687,-2.7947,-2.795,-2.7953,0,0,0,0,0,0,-2.7211,-2.7231,-2.7406,-2.7329,-2.7352,-2.7403,-2.7448,-2.7456,-2.7487,-2.7545,-2.7554,-2.7503,-2.7604,-2.7622,-2.771,-2.7748,-2.7686,-2.7693,-2.7944,-2.7948,-2.7951,-2.7968,0,0,0,0,0,0,-2.7204,-2.7229,-2.7263,-2.733,-2.7356,-2.748,-2.7451,-2.746,-2.7499,-2.7498,-2.7569,-2.7578,-2.7603,-2.7698,-2.7717,-2.7758,-2.7699,-2.794,-2.7946,-2.795,-2.7964,-2.7972,-2.7978,0,0,0,0,0,-2.7196,-2.7264,-2.7265,-2.7286,-2.7399,-2.7482,-2.7497,-2.7523,-2.7502,-2.7538,-2.7575,-2.7576,-2.7741,-2.7707,-2.7728,-2.7772,-2.7938,-2.7944,-2.795,-2.7961,-2.797,-2.7978,0,0,0,0,0,0,-2.7203,-2.7273,-2.7275,-2.7367,-2.7418,-2.7483,-2.7528,-2.7532,-2.7592,-2.7588,-2.762,-2.7636,-2.7723,-2.7757,-2.7717,-2.7865,-2.7838,-2.7848,-2.7839,-2.7848,-2.7855,-2.7845,-2.7705,0,0,0,0,0,-2.7215,-2.7274,-2.7334,-2.7409,-2.7434,-2.7477,-2.7514,-2.7529,-2.7584,-2.7606,-2.765,-2.7705,-2.7769,-2.7811,-2.7873,-2.7969,-2.7985,-2.801,-2.8017,-2.8023,-2.8031,-2.8083,-2.8095,-2.7972,-2.7972,-2.7972,0,0,-2.7241,-2.7287,-2.7323,-2.7412,-2.7453,-2.7515,-2.7495,-2.7562,-2.7608,-2.7617,-2.7702,-2.7736,-2.78,-2.7891,-2.7934,-2.7922,-2.8069,-2.803,-2.8034,-2.8039,-2.8091,-2.8102,-2.8112,-2.7976,-2.7975,-2.7974,0,0,-2.7319,-2.736,-2.7427,-2.7468,-2.753,-2.7558,-2.7574,-2.7638,-2.7661,-2.7746,-2.7753,-2.7811,-2.7921,-2.7965,-2.8002,-2.8097,-2.81,-2.8117,-2.8154,-2.8205,-2.8214,-2.8223,-2.8256,-2.8267,-2.8125,-2.8125,-2.8125,0,-2.7344,-2.7436,-2.7461,-2.7527,-2.7566,-2.7575,-2.7643,-2.7683,-2.7763,-2.7791,-2.7776,-2.7914,-2.7957,-2.8059,-2.8082,-2.8112,-2.8132,-2.8108,-2.8211,-2.822,-2.8228,-2.826,-2.8272,-2.8127,-2.8127,-2.8126,-2.8126,0,-2.7462,-2.7526,-2.7573,-2.7647,-2.7692,-2.7759,-2.7795,-2.7838,-2.785,-2.788,-2.7966,-2.8019,-2.8091,-2.8117,-2.8131,-2.8221,-2.8212,-2.8204,-2.8177,-2.8241,-2.8271,-2.8284,-2.8129,-2.8128,-2.8128,-2.8128,0,0,-2.7548,-2.7635,-2.7652,-2.7685,-2.7755,-2.7805,-2.7873,-2.7942,-2.7978,-2.8033,-2.8091,-2.8184,-2.8176,-2.8218,-2.8237,-2.8282,-2.8352,-2.8269,-2.827,-2.8281,-2.8455,-2.8459,-2.8472,-2.8355,-2.8358,-2.836,-2.8449,0,-2.7633,-2.7751,-2.7775,-2.7878,-2.7937,-2.7947,-2.8006,-2.8056,-2.8086,-2.8142,-2.8176,-2.824,-2.8226,-2.8251,-2.8296,-2.8334,-2.8387,-2.8328,-2.841,-2.8412,-2.8391,-2.8488,-2.8493,-2.8574,-2.8461,-2.8463,-2.8464,0,-2.7747,-2.7802,-2.791,-2.7971,-2.7997,-2.8049,-2.8114,-2.8167,-2.8224,-2.8243,-2.8289,-2.8303,-2.8375,-2.8346,-2.8446,-2.8405,-2.844,-2.8464,-2.8468,-2.8475,-2.8441,-2.8497,-2.8601,-2.8613,-2.8483,-2.8482,-2.8481,0,-2.7796,-2.7899,-2.7976,-2.8005,-2.8078,-2.8115,-2.8147,-2.8202,-2.8242,-2.8299,-2.8326,-2.8392,-2.8428,-2.848,-2.8511,-2.8487,-2.8608,-2.8582,-2.8626,-2.8625,-2.865,-2.8647,-2.876,-2.8675,-2.8675,-2.8675,-2.8674,0,-2.7887,-2.7953,-2.7999,-2.8047,-2.812,-2.8149,-2.8222,-2.8255,-2.8303,-2.8358,-2.8372,-2.8424,-2.8463,-2.8521,-2.8547,-2.8625,-2.8642,-2.8659,-2.8665,-2.8657,-2.8654,-2.8679,-2.8673,-2.8678,-2.8677,-2.8677,-2.8676,0,-2.7955,-2.7988,-2.8073,-2.8135,-2.8152,-2.8203,-2.8257,-2.8304,-2.8334,-2.8404,-2.8422,-2.847,-2.8538,-2.8575,-2.8661,-2.8679,-2.8766,-2.8769,-2.8745,-2.8747,-2.8789,-2.8784,-2.8919,-2.8938,-2.8842,-2.8843,-2.8844,0,-2.8009,-2.8059,-2.8126,-2.8163,-2.8195,-2.8255,-2.8295,-2.8326,-2.8367,-2.8436,-2.8475,-2.8543,-2.86,-2.8709,-2.8752,-2.8818,-2.8823,-2.8866,-2.8833,-2.8823,-2.8822,-2.8817,-2.8822,-2.8871,-2.8872,-2.8873,-2.8873,0,-2.8103,-2.8117,-2.8173,-2.8235,-2.8282,-2.8333,-2.8383,-2.8413,-2.8453,-2.8499,-2.8567,-2.8611,-2.8698,-2.8766,-2.8836,-2.8871,-2.8879,-2.8883,-2.8897,-2.8888,-2.8871,-2.8879,-2.8759,-2.888,-2.8879,-2.8879,-2.8878,-2.8878,-2.8165,-2.8209,-2.8262,-2.8324,-2.8365,-2.8412,-2.8458,-2.8494,-2.8551,-2.8622,-2.8638,-2.8711,-2.8767,-2.8861,-2.8898,-2.8956,-2.8948,-2.8968,-2.8972,-2.8976,-2.8977,-2.8863,-2.8969,-2.8969,-2.8969,-2.8969,-2.8969,0,-2.8257,-2.8292,-2.8348,-2.8417,-2.8466,-2.8468,-2.8524,-2.8565,-2.8628,-2.8679,-2.8734,-2.8813,-2.8879,-2.8927,-2.8995,-2.9032,-2.9037,-2.9049,-2.9046,-2.9053,-2.8982,-2.8962,-2.9043,-2.9043,-2.9043,-2.9043,-2.9043,-2.9043,-2.8311,-2.8386,-2.8406,-2.8501,-2.8536,-2.8605,-2.8637,-2.8681,-2.8721,-2.8808,-2.8862,-2.8892,-2.8943,-2.9014,-2.9075,-2.9088,-2.9112,-2.9122,-2.9135,-2.9067,-2.9059,-2.9051,-2.9033,-2.9128,-2.9128,-2.9202,-2.9203,-2.9203]},{"header":{"parameterUnit":"m.s-1","parameterCategory":1,"la1":30.2991,"la2":30.254,"lo1":-89.0895,"lo2":-89.0444,"dy":0.0017,"dx":0.0017,"nx":28,"ny":28,"refTime":"2024-02-08T03:00:00:Z","depth":0,"parameterNumber":3,"parameterNumberName":"V-component_of_WINDS"},"data":[0,0,0,0,0,0,0,0,0,0,0,0,0,0,0,0,0,0,0,0,0,0,0,0,0,0,0,0,0,0,0,0,0,0,0,0,0,0,0,0,0,0,0,0,0,0,0,0,0,0,0,0,0,0,0,0,0,0,2.5523,2.5525,0,2.5716,2.5718,2.5721,2.5786,2.5785,2.5784,2.5783,2.5982,2.5988,2.5994,0,0,0,0,0,0,0,0,0,0,0,0,0,2.5212,2.5218,2.5522,2.5525,2.5527,2.5716,2.5719,2.5721,2.5786,2.5785,2.5784,2.5783,2.598,2.5988,2.5995,0,0,0,0,0,0,0,0,0,0,0,0,0,2.5371,2.5219,2.5522,2.5582,2.559,2.5715,2.5719,2.5722,2.5786,2.5785,2.5784,2.5782,2.5978,2.5987,2.5996,2.6076,0,0,2.6024,2.6027,0,0,0,0,0,0,0,0,2.5362,2.5382,2.5571,2.5578,2.5587,2.5726,2.5682,2.5841,2.5786,2.5711,2.5783,2.5782,2.5898,2.5914,2.5953,2.6085,2.6094,2.6024,2.603,2.6034,2.6036,0,0,0,0,0,0,0,2.535,2.5374,2.5599,2.5574,2.5583,2.5601,2.5622,2.5713,2.5809,2.5718,2.5723,2.5745,2.5902,2.5944,2.5958,2.6097,2.6024,2.6032,2.6038,2.6041,2.631,2.6312,0,0,0,0,0,0,2.5329,2.5364,2.5593,2.5605,2.5469,2.5607,2.5631,2.5682,2.5808,2.5826,2.5746,2.5747,2.5929,2.5947,2.5965,2.6071,2.6034,2.6042,2.6047,2.6309,2.6311,2.6312,0,0,0,0,0,0,2.5322,2.5349,2.5585,2.5486,2.5518,2.5614,2.5671,2.5687,2.5728,2.583,2.5847,2.577,2.5928,2.5952,2.6049,2.6078,2.6046,2.6055,2.6307,2.6309,2.6312,2.628,0,0,0,0,0,0,2.5313,2.5346,2.5376,2.5486,2.5523,2.5665,2.5673,2.5691,2.5744,2.5748,2.5857,2.5874,2.5929,2.6035,2.6058,2.609,2.6062,2.6304,2.6308,2.6311,2.6279,2.6281,2.6283,0,0,0,0,0,2.5302,2.5359,2.5377,2.5405,2.5562,2.5666,2.5687,2.5749,2.5746,2.5778,2.5844,2.5871,2.6071,2.6044,2.6071,2.6106,2.6303,2.6307,2.6311,2.6278,2.6281,2.6283,0,0,0,0,0,0,2.5248,2.5374,2.5396,2.549,2.5567,2.5677,2.5719,2.5749,2.5829,2.5829,2.5903,2.5927,2.6019,2.6072,2.604,2.6193,2.6189,2.6198,2.6155,2.6158,2.616,2.6146,2.6069,0,0,0,0,0,2.5248,2.5321,2.5427,2.55,2.5537,2.5622,2.5669,2.5711,2.5793,2.5826,2.5899,2.5978,2.606,2.6112,2.6192,2.6287,2.6314,2.6324,2.6326,2.6328,2.6335,2.6393,2.64,2.6325,2.6325,2.6325,0,0,2.5247,2.5325,2.5366,2.5491,2.5556,2.5632,2.5648,2.5727,2.5784,2.5838,2.5935,2.5991,2.6085,2.6182,2.6229,2.6229,2.6362,2.6332,2.6333,2.634,2.6398,2.6405,2.6411,2.6328,2.6327,2.6327,0,0,2.5285,2.5349,2.5419,2.5484,2.5582,2.5639,2.5655,2.5762,2.5802,2.59,2.5943,2.6013,2.615,2.6217,2.6269,2.6336,2.6365,2.636,2.6372,2.6427,2.6433,2.6439,2.6466,2.6475,2.6367,2.6367,2.6367,0,2.5271,2.5386,2.5451,2.5529,2.5584,2.5638,2.5711,2.577,2.5889,2.5927,2.5926,2.6103,2.617,2.6285,2.6302,2.6341,2.6365,2.6348,2.6427,2.6434,2.644,2.6467,2.6476,2.6366,2.6366,2.6366,2.6366,0,2.5367,2.5446,2.5491,2.5606,2.5666,2.5741,2.5819,2.5873,2.591,2.5967,2.6069,2.6151,2.6251,2.6281,2.6317,2.6403,2.6401,2.6412,2.641,2.6445,2.6471,2.6482,2.6365,2.6365,2.6365,2.6366,0,0,2.5375,2.5527,2.5543,2.5598,2.5711,2.5775,2.5853,2.5951,2.5997,2.6078,2.6148,2.6265,2.6278,2.6337,2.6381,2.643,2.6482,2.6437,2.644,2.6444,2.6586,2.6578,2.6588,2.6502,2.6504,2.6506,2.6579,0,2.5429,2.5571,2.5634,2.5748,2.5825,2.5878,2.5947,2.6025,2.6082,2.6156,2.6218,2.6301,2.631,2.6347,2.6397,2.6465,2.6512,2.646,2.657,2.6573,2.6546,2.6602,2.6593,2.6658,2.659,2.6591,2.6593,0,2.5511,2.5594,2.5716,2.5825,2.5859,2.5919,2.6017,2.6086,2.6177,2.6215,2.6283,2.6326,2.6413,2.6404,2.6527,2.649,2.6539,2.658,2.6584,2.6597,2.6586,2.6619,2.668,2.669,2.6609,2.6608,2.6607,0,2.5508,2.565,2.5743,2.5787,2.5915,2.5958,2.6013,2.6103,2.6159,2.6245,2.6283,2.6376,2.6428,2.6501,2.6569,2.6556,2.6687,2.6682,2.6722,2.6721,2.6748,2.6746,2.6819,2.6776,2.6776,2.6776,2.6775,0,2.5563,2.5636,2.5744,2.5801,2.5886,2.5959,2.6041,2.6101,2.6181,2.6252,2.6304,2.637,2.6455,2.6533,2.6587,2.6682,2.6704,2.6739,2.6753,2.6736,2.6731,2.6769,2.6767,2.6778,2.6778,2.6777,2.6777,0,2.5574,2.5648,2.5754,2.5867,2.5898,2.5956,2.6054,2.6113,2.6172,2.6262,2.6287,2.6381,2.6476,2.6551,2.6674,2.6711,2.6811,2.6826,2.6781,2.6788,2.6825,2.6821,2.6927,2.6946,2.6887,2.6888,2.6888,0,2.5605,2.5663,2.5784,2.5836,2.5891,2.5973,2.6031,2.6106,2.6165,2.6276,2.6322,2.642,2.6503,2.6651,2.6731,2.6826,2.6845,2.6876,2.686,2.6842,2.6849,2.6845,2.6853,2.6877,2.6878,2.6878,2.6878,0,2.5653,2.5688,2.577,2.5867,2.5936,2.6015,2.6096,2.6135,2.6225,2.6289,2.6387,2.6451,2.6578,2.6676,2.678,2.6839,2.6875,2.6882,2.6897,2.6881,2.6854,2.6872,2.6788,2.688,2.688,2.688,2.6879,2.6879,2.5677,2.5733,2.5828,2.5919,2.5988,2.6063,2.6125,2.6194,2.6276,2.6386,2.6425,2.6526,2.662,2.6764,2.6823,2.6905,2.6908,2.6928,2.6934,2.6938,2.6938,2.6839,2.6924,2.6924,2.6924,2.6924,2.6924,0,2.573,2.5795,2.5878,2.599,2.6063,2.609,2.6182,2.6241,2.633,2.6414,2.6495,2.6609,2.6706,2.6794,2.6895,2.6944,2.6963,2.6968,2.6966,2.698,2.6928,2.6906,2.6951,2.6951,2.6951,2.6951,2.6951,2.6951,2.5766,2.5863,2.591,2.6044,2.6108,2.6208,2.6258,2.6329,2.6397,2.6523,2.6603,2.6661,2.6748,2.6856,2.6947,2.6971,2.7006,2.7008,2.7036,2.6986,2.6983,2.6979,2.6959,2.7014,2.7014,2.7081,2.7082,2.7082]}]]